Location: Czekanka
(50.4925°N, 19.2643°E)
Time: 12:18:35
(UTC+00:00)

FENGYUN 1C DEB - Pass Details

Date: 27 November 2025
Orbit: 800 x 866 km, 98.6° (Epoch: 04 December)

Event Time Altitude Azimuth Distance (km) Brightness Sun altitude
Rises 02:55:37 0° 17° (NNE) 3,323 ? -31.1°
Reaches altitude 10° 02:58:00 10° 21° (NNE) 2,387 ? -30.8°
Maximum altitude 03:03:12 59° 101° (ESE) 926 ? -29.9°
Enters shadow 03:05:05 37° 162° (SSE) 1,227 ? -29.6°
